When you browse on this site, cookies collect data to enhance your experience and personalize the content and advertising you see.
Visit our Privacy Policy to learn more. By continuing to use the site, you agree to this use of cookies and data.
  • In Belgien
  • Länderverzeichnis
  • Für 7 Tage
  • Wassertemperatur
  • Satellitenkarten
  • Wetterkarte
  • Widgets
  • user-avatar
    Anmelden

    Stündliche Wetter Mons

    Heute, 16 Februar, Samstag

    Zeit Temperatur Niederschläge Wind Luftdruck Luftfeuchtigkeit
    00:00 +5°C° 0 mm 4 m/S 767 mmHg 84%
    01:00 +5°C° 0 mm 4 m/S 767 mmHg 85%
    02:00 +5°C° 0 mm 4 m/S 767 mmHg 86%
    03:00 +4°C° 0 mm 4 m/S 766 mmHg 88%
    04:00 +4°C° 0 mm 4 m/S 766 mmHg 88%
    05:00 +4°C° 0 mm 4 m/S 766 mmHg 89%
    06:00 +4°C° 0 mm 4 m/S 766 mmHg 89%
    07:00 +5°C° 0 mm 4 m/S 766 mmHg 85%
    08:00 +6°C° 0 mm 4 m/S 767 mmHg 81%
    09:00 +7°C° 0 mm 4 m/S 767 mmHg 77%
    10:00 +8°C° 0 mm 4 m/S 767 mmHg 73%
    11:00 +10°C° 0 mm 4 m/S 767 mmHg 69%
    12:00 +12°C° 0 mm 4 m/S 767 mmHg 65%
    13:00 +12°C° 0 mm 4 m/S 766 mmHg 65%
    14:00 +13°C° 0 mm 3 m/S 766 mmHg 65%
    15:00 +13°C° 0 mm 3 m/S 766 mmHg 65%
    16:00 +11°C° 0 mm 3 m/S 766 mmHg 72%
    17:00 +10°C° 0 mm 3 m/S 766 mmHg 78%
    18:00 +8°C° 0 mm 3 m/S 766 mmHg 85%
    19:00 +8°C° 0 mm 3 m/S 766 mmHg 85%
    20:00 +7°C° 0 mm 3 m/S 765 mmHg 86%
    21:00 +7°C° 0 mm 3 m/S 765 mmHg 87%
    22:00 +7°C° 0 mm 3 m/S 765 mmHg 87%
    23:00 +5°C° 0 mm 3 m/S 765 mmHg 86%

    Morgen, 17 Februar, Sonntag

    Zeit Temperatur Niederschläge Wind Luftdruck Luftfeuchtigkeit
    00:00 +5°C° 0 mm 4 m/S 765 mmHg 86%
    01:00 +5°C° 0 mm 4 m/S 764 mmHg 86%
    02:00 +5°C° 0 mm 4 m/S 764 mmHg 86%
    03:00 +5°C° 0 mm 4 m/S 764 mmHg 85%
    04:00 +5°C° 0 mm 4 m/S 763 mmHg 83%
    05:00 +5°C° 0 mm 4 m/S 763 mmHg 80%
    06:00 +5°C° 0 mm 4 m/S 763 mmHg 77%
    07:00 +5°C° 0 mm 5 m/S 763 mmHg 73%
    08:00 +6°C° 0 mm 5 m/S 763 mmHg 69%
    09:00 +7°C° 0 mm 6 m/S 763 mmHg 65%
    10:00 +9°C° 0 mm 6 m/S 763 mmHg 62%
    11:00 +10°C° 0 mm 6 m/S 762 mmHg 58%
    12:00 +11°C° 0 mm 7 m/S 762 mmHg 55%
    13:00 +13°C° 0 mm 6 m/S 762 mmHg 55%
    14:00 +13°C° 0 mm 6 m/S 762 mmHg 55%
    15:00 +13°C° 0 mm 6 m/S 761 mmHg 56%
    16:00 +12°C° 0 mm 5 m/S 761 mmHg 61%
    17:00 +9°C° 0 mm 5 m/S 762 mmHg 66%
    18:00 +8°C° 0 mm 4 m/S 762 mmHg 71%
    19:00 +7°C° 0 mm 4 m/S 762 mmHg 72%
    20:00 +7°C° 0 mm 4 m/S 762 mmHg 73%
    21:00 +7°C° 0 mm 4 m/S 762 mmHg 74%
    22:00 +6°C° 0 mm 4 m/S 762 mmHg 75%
    23:00 +6°C° 0 mm 4 m/S 762 mmHg 75%

    übermorgen, 18 Februar, Montag

    Zeit Temperatur Niederschläge Wind Luftdruck Luftfeuchtigkeit
    00:00 +6°C° 0 mm 4 m/S 762 mmHg 76%
    01:00 +6°C° 0 mm 4 m/S 762 mmHg 78%
    02:00 +5°C° 0 mm 4 m/S 761 mmHg 79%
    03:00 +5°C° 0 mm 4 m/S 761 mmHg 80%
    04:00 +5°C° 0 mm 4 m/S 761 mmHg 82%
    05:00 +4°C° 0 mm 4 m/S 761 mmHg 83%
    06:00 +4°C° 0 mm 4 m/S 761 mmHg 85%
    07:00 +5°C° 0 mm 4 m/S 761 mmHg 82%
    08:00 +6°C° 0 mm 4 m/S 761 mmHg 79%
    09:00 +7°C° 0 mm 5 m/S 761 mmHg 76%
    10:00 +8°C° 0 mm 5 m/S 761 mmHg 74%
    11:00 +9°C° 0 mm 5 m/S 760 mmHg 72%
    12:00 +12°C° 0 mm 5 m/S 760 mmHg 70%
    13:00 +12°C° 0 mm 5 m/S 760 mmHg 68%
    14:00 +12°C° 0 mm 5 m/S 759 mmHg 67%
    15:00 +12°C° 0 mm 5 m/S 759 mmHg 66%
    16:00 +10°C° 0 mm 5 m/S 759 mmHg 71%
    17:00 +10°C° 0 mm 4 m/S 759 mmHg 76%
    18:00 +7°C° 0 mm 4 m/S 759 mmHg 82%
    19:00 +7°C° 0 mm 4 m/S 759 mmHg 82%
    20:00 +7°C° 0 mm 4 m/S 759 mmHg 83%
    21:00 +7°C° 0 mm 4 m/S 759 mmHg 83%
    22:00 +7°C° 0.1 mm 4 m/S 759 mmHg 84%
    23:00 +7°C° 0.1 mm 4 m/S 759 mmHg 84%

    19 Februar, Dienstag

    Zeit Temperatur Niederschläge Wind Luftdruck Luftfeuchtigkeit
    00:00 +7°C° 0.1 mm 4 m/S 759 mmHg 85%
    01:00 +7°C° 0.8 mm 3 m/S 759 mmHg 88%
    02:00 +7°C° 0.8 mm 3 m/S 759 mmHg 92%
    03:00 +7°C° 0.8 mm 3 m/S 759 mmHg 95%
    04:00 +7°C° 0.1 mm 3 m/S 759 mmHg 95%
    05:00 +7°C° 0.1 mm 3 m/S 759 mmHg 95%
    06:00 +7°C° 0.1 mm 2 m/S 760 mmHg 95%
    07:00 +7°C° 0 mm 3 m/S 760 mmHg 93%
    08:00 +6°C° 0 mm 4 m/S 761 mmHg 91%
    09:00 +7°C° 0 mm 5 m/S 762 mmHg 89%
    10:00 +7°C° 0 mm 4 m/S 762 mmHg 83%
    11:00 +8°C° 0 mm 4 m/S 762 mmHg 77%
    12:00 +10°C° 0 mm 4 m/S 762 mmHg 70%
    13:00 +10°C° 0 mm 4 m/S 762 mmHg 68%
    14:00 +10°C° 0 mm 4 m/S 762 mmHg 65%
    15:00 +11°C° 0 mm 4 m/S 762 mmHg 62%
    16:00 +9°C° 0 mm 3 m/S 762 mmHg 68%
    17:00 +8°C° 0 mm 3 m/S 763 mmHg 73%
    18:00 +7°C° 0 mm 2 m/S 763 mmHg 79%
    19:00 +7°C° 0 mm 2 m/S 763 mmHg 82%
    20:00 +5°C° 0 mm 3 m/S 763 mmHg 85%
    21:00 +5°C° 0 mm 3 m/S 764 mmHg 88%
    22:00 +4°C° 0 mm 3 m/S 764 mmHg 90%
    23:00 +4°C° 0 mm 3 m/S 764 mmHg 92%

    20 Februar, Mittwoch

    Zeit Temperatur Niederschläge Wind Luftdruck Luftfeuchtigkeit
    00:00 +4°C° 0 mm 3 m/S 764 mmHg 94%
    01:00 +4°C° 0 mm 3 m/S 763 mmHg 93%
    02:00 +3°C° 0 mm 4 m/S 763 mmHg 93%
    03:00 +3°C° 0 mm 4 m/S 763 mmHg 93%
    04:00 +3°C° 0 mm 4 m/S 763 mmHg 93%
    05:00 +3°C° 0 mm 4 m/S 763 mmHg 93%
    06:00 +3°C° 0 mm 4 m/S 763 mmHg 93%
    07:00 +3°C° 0 mm 5 m/S 763 mmHg 90%
    08:00 +5°C° 0 mm 5 m/S 763 mmHg 87%
    09:00 +6°C° 0 mm 5 m/S 764 mmHg 84%
    10:00 +7°C° 0 mm 5 m/S 764 mmHg 80%
    11:00 +8°C° 0 mm 6 m/S 764 mmHg 75%
    12:00 +9°C° 0 mm 6 m/S 764 mmHg 71%
    13:00 +9°C° 0 mm 6 m/S 763 mmHg 69%
    14:00 +10°C° 0 mm 5 m/S 763 mmHg 68%
    15:00 +10°C° 0 mm 5 m/S 763 mmHg 66%
    16:00 +9°C° 0 mm 5 m/S 763 mmHg 72%
    17:00 +8°C° 0 mm 4 m/S 764 mmHg 78%
    18:00 +8°C° 0 mm 3 m/S 764 mmHg 83%
    19:00 +7°C° 0 mm 3 m/S 764 mmHg 85%
    20:00 +6°C° 0 mm 4 m/S 764 mmHg 86%
    21:00 +6°C° 0 mm 4 m/S 764 mmHg 87%
    22:00 +6°C° 0 mm 4 m/S 764 mmHg 89%
    23:00 +6°C° 0 mm 4 m/S 764 mmHg 90%

    21 Februar, Donnerstag

    Zeit Temperatur Niederschläge Wind Luftdruck Luftfeuchtigkeit
    00:00 +5°C° 0 mm 4 m/S 764 mmHg 92%
    01:00 +5°C° 0 mm 3 m/S 765 mmHg 92%
    02:00 +5°C° 0 mm 3 m/S 765 mmHg 93%
    03:00 +5°C° 0 mm 3 m/S 765 mmHg 94%
    04:00 +5°C° 0 mm 3 m/S 765 mmHg 94%
    05:00 +4°C° 0 mm 3 m/S 765 mmHg 94%
    06:00 +4°C° 0 mm 3 m/S 766 mmHg 95%
    07:00 +5°C° 0 mm 3 m/S 766 mmHg 92%
    08:00 +6°C° 0 mm 4 m/S 766 mmHg 89%
    09:00 +7°C° 0 mm 4 m/S 766 mmHg 86%
    10:00 +10°C° 0 mm 4 m/S 766 mmHg 80%
    11:00 +11°C° 0 mm 4 m/S 766 mmHg 75%
    12:00 +12°C° 0 mm 4 m/S 766 mmHg 69%
    13:00 +13°C° 0 mm 3 m/S 766 mmHg 68%
    14:00 +13°C° 0 mm 3 m/S 766 mmHg 66%
    15:00 +14°C° 0 mm 2 m/S 766 mmHg 65%
    16:00 +13°C° 0 mm 2 m/S 766 mmHg 70%
    17:00 +11°C° 0 mm 1 m/S 767 mmHg 76%
    18:00 +10°C° 0 mm 1 m/S 767 mmHg 81%
    19:00 +9°C° 0 mm 1 m/S 767 mmHg 81%
    20:00 +9°C° 0 mm 1 m/S 767 mmHg 82%
    21:00 +9°C° 0 mm 1 m/S 768 mmHg 83%
    22:00 +8°C° 0 mm 1 m/S 768 mmHg 84%
    23:00 +8°C° 0 mm 1 m/S 768 mmHg 85%
    Mehr zeigen